Change the Weather History Date:

Monday, January 5, 2015

  Actual Average Record
Temperature  
Mean Temperature 75 °F 66 °F  
Max Temperature 82 °F 75 °F 85 °F (1908)
Min Temperature 68 °F 57 °F 34 °F (1920)
Degree Days  
Heating Degree Days 0 3  
Month to date heating degree days 0 15  
Since 1 July heating degree days 42 86  
Cooling Degree Days 10 4  
Month to date cooling degree days 61 20  
Year to date cooling degree days 61 20  
Growing Degree Days 25 (Base 50)    
Moisture  
Dew Point 69 °F    
Average Humidity 81    
Maximum Humidity 93    
Minimum Humidity 69    
Precipitation  
Precipitation T in 0.10 in 4.06 in (1935)
Month to date precipitation 0.23 0.55  
Year to date precipitation 0.23 0.55  
Snow  
Snow 0.00 in - - ()
Month to date snowfall 0.0  
Since 1 July snowfall 0.0  
Snow Depth 0.00 in    
Sea Level Pressure  
Sea Level Pressure 30.28 in    
Wind  
Wind Speed 7 mph (NNE)    
Max Wind Speed 20 mph    
Max Gust Speed 24 mph    
Visibility 10 miles    
Events Rain    
T = Trace of Precipitation, MM = Missing Value Source: NWS Daily Summary

Daily Weather History Graph

Daily Weather History Graph

Search for Another Location

Airport or City:

Trip Planner

Search our weather history database for the weather conditions in past years. The results will help you decide how hot, cold, wet, or windy it might be!

Date:

Astronomy

Jan. 05, 2015 Rise Set
Actual Time 7:09 AM EST 5:41 PM EST
Civil Twilight 6:44 AM EST 6:07 PM EST
Nautical Twilight 6:15 AM EST 6:35 PM EST
Astronomical Twilight 5:47 AM EST 7:04 PM EST
Moon 6:26 PM EST (1/5) 7:13 AM EST (1/5)
Length of Visible Light 11h 22m
Length of Day
10h 31m
Full, 100% of the Moon is Illuminated
Jan 5
Full
Jan 13
Last Quarter
Jan 20
New
Jan 26
First Quarter
Feb 3
Full

Hourly Weather History & Observations

Time (EST) Temp. Heat Index Dew Point Humidity Pressure Visibility Wind Dir Wind Speed Gust Speed Precip Events Conditions
12:02 AM 73.9 °F - 72.0 °F 93% 30.26 in 10.0 mi West 4.6 mph - N/A   Mostly Cloudy
12:53 AM 73.0 °F - 71.1 °F 93% 30.25 in 10.0 mi Calm Calm - N/A   Mostly Cloudy
1:36 AM 71.1 °F - 69.1 °F 93% 30.25 in 10.0 mi NW 4.6 mph - N/A   Scattered Clouds
1:53 AM 72.0 °F - 70.0 °F 93% 30.25 in 10.0 mi Calm Calm - N/A   Scattered Clouds
2:53 AM 72.0 °F - 70.0 °F 93% 30.24 in 10.0 mi Calm Calm - N/A   Scattered Clouds
3:53 AM 73.0 °F - 70.0 °F 90% 30.23 in 10.0 mi Calm Calm - N/A   Partly Cloudy
4:53 AM 71.1 °F - 69.1 °F 93% 30.24 in 10.0 mi Calm Calm - N/A   Scattered Clouds
5:53 AM 71.1 °F - 69.1 °F 93% 30.24 in 10.0 mi Calm Calm - N/A   Mostly Cloudy
6:53 AM 73.0 °F - 70.0 °F 90% 30.27 in 10.0 mi Calm Calm - N/A   Mostly Cloudy
7:53 AM 73.9 °F - 71.1 °F 91% 30.28 in 10.0 mi SSE 3.5 mph - N/A   Mostly Cloudy
8:53 AM 77.0 °F - 72.0 °F 84% 30.30 in 10.0 mi South 4.6 mph - N/A   Mostly Cloudy
9:53 AM 80.1 °F 83.6 °F 71.1 °F 74% 30.31 in 10.0 mi South 8.1 mph - N/A   Scattered Clouds
10:53 AM 81.0 °F 84.4 °F 70.0 °F 69% 30.32 in 10.0 mi Calm Calm - N/A   Mostly Cloudy
11:53 AM 80.1 °F 83.6 °F 71.1 °F 74% 30.30 in 10.0 mi NNE 9.2 mph - 0.00 in Rain Light Rain
12:06 PM 79.0 °F - 72.0 °F 79% 30.30 in 10.0 mi North 12.7 mph - 0.00 in   Mostly Cloudy
12:53 PM 78.1 °F - 71.1 °F 79% 30.28 in 10.0 mi NNE 12.7 mph - 0.00 in   Mostly Cloudy
1:32 PM 78.1 °F - 70.0 °F 76% 30.28 in 10.0 mi North 11.5 mph - 0.00 in   Overcast
1:53 PM 79.0 °F - 69.1 °F 72% 30.27 in 10.0 mi North 12.7 mph - 0.00 in   Mostly Cloudy
2:11 PM 78.1 °F - 69.1 °F 74% 30.27 in 10.0 mi North 19.6 mph - N/A   Mostly Cloudy
2:44 PM 77.0 °F - 68.0 °F 74% 30.28 in 10.0 mi North 17.3 mph - N/A   Mostly Cloudy
2:53 PM 77.0 °F - 68.0 °F 74% 30.27 in 10.0 mi North 16.1 mph 23.0 mph N/A   Mostly Cloudy
3:53 PM 75.9 °F - 66.9 °F 74% 30.28 in 10.0 mi North 16.1 mph - N/A   Mostly Cloudy
4:53 PM 75.9 °F - 66.0 °F 71% 30.29 in 10.0 mi North 13.8 mph - N/A   Mostly Cloudy
5:53 PM 73.9 °F - 66.9 °F 79% 30.30 in 10.0 mi North 11.5 mph - N/A   Mostly Cloudy
6:53 PM 73.9 °F - 66.9 °F 79% 30.30 in 10.0 mi NNE 10.4 mph - N/A   Scattered Clouds
7:53 PM 73.9 °F - 68.0 °F 82% 30.30 in 10.0 mi NNE 8.1 mph - 0.00 in Rain Light Rain
8:53 PM 75.0 °F - 68.0 °F 79% 30.30 in 10.0 mi NE 10.4 mph - 0.00 in   Scattered Clouds
9:53 PM 75.0 °F - 66.9 °F 76% 30.30 in 10.0 mi ENE 9.2 mph - N/A   Scattered Clouds
10:53 PM 75.0 °F - 66.9 °F 76% 30.29 in 10.0 mi NE 9.2 mph - N/A   Scattered Clouds
11:53 PM 75.9 °F - 66.9 °F 74% 30.28 in 10.0 mi NE 9.2 mph - N/A   Scattered Clouds